Accueil
METAR-TAF:

METAR-TAF

Aéroports :

Nenana, Alaska, États-Unis

latitude: 64-33N, longitude: 149-05W, altitude: 110 m

Observation

Le bulletin a été fait il y a 1 heure et 10 minutes, à 08:53 UTC
Vent calme
Température 8°C
Humidité 81%
Pression 1022 hPa
Visibilité: 16.1 km
Ciel clair

METAR: PANN 190853Z AUTO 00000KT 10SM CLR 08/05 A3019 RMK AO2 SLP228 T00780050 402060072 53005 TSNO $

Heure: 02:03 (10:03 UTC)


TAF: absent

Observations et prévisions météorologiques de plus de 4000 aéroports (messages METAR et TAF).

Les stations disponibles sont représentées par des disques jaunes et rouges sur la carte.

Passer la souris dessus pour voir le nom de la station.

Cliquer dessus pour voir les observations et prévisions météorologiques.

Pour changer de carte: cliquez sur les boutons verts avec une croix noire pour zoomer, sur le bouton vert avec un tiret pour effectuer un zoom arrière, ou sur les flèches vertes pour les cartes adjacentes.


METAR-TAF: